STARLINK-35301 (65843 NORAD) Tracking and Keplerian Element Data

This shows tracking and keplerian element data for the satellite.

Feedback or suggestion? Click here.




ElementValue
Catalog65843
NameSTARLINK-35301
Epoch Orbit1253
Epoch Day354.00089782
Epoch Year2025
RAAN98.4193
Inclination53.1587
Eccentricity6.2E-05
Argument of Perigee111.9108
Mean Anonmoly248.1958
Mean Motion15.30205648
Decay Rate0.00015397
L11 65843U 25221W 25354.00089782 .00015397 00000+0 53079-3 0 9992
L22 65843 53.1587 98.4193 0000620 111.9108 248.1958 15.30205648 12532



Live tracking and technical data element details for STARLINK-35301 (NORAD 65843). STARLINK-35301 can be tracked NOW for your location showing map with azimuth and elevation plus other details from your city location.







IsCatalogInMostPopularTable: catalog: 65843, numindb: 8
Update: records affected: 1



GetName: 65843 STARLINK-35301

Hit Count: updated at: Tue, 21 Apr 2026 19:17:02 GMT